カタログに戻る

XIGUANG 1-05

運用中科学SSO
NORAD 61901·PAYLOAD·🇨🇳 China
この衛星名は、まだ公式ソースで確認されていません。

打ち上げ Nov 11, 2024 から Jiuquan Satellite Launch Center

Loading…

次のパス (今後24時間)

TLE

最新Source: Space-Track

元期: Sep 14, 2026, 15:40 UTC

1 61901U 24205H   26257.65335035  .00010496  00000-0  32386-3 0  9997
2 61901  97.4044 335.7831 0010836  81.9890 278.2582 15.33700541102422

AllMySatでXIGUANG 1-05をリアルタイム追跡

Download on the App Store